Regional Weather Roundup
Issued by NWS Wakefield, VA

Home | Current Version | Previous Version | Graphics & Text | Print | Product List | Glossary On
Versions: 1 2 3 4 5 6 7 8 9 10 11 12 13 14 15 16 17 18 19 20 21 22 23 24 25 26 27 28 29 30 31 32 33 34 35 36 37 38 39 40 41 42 43 44 45 46 47 48
000
ASUS41 KAKQ 022110
RWRAKQ

REGIONAL WEATHER ROUNDUP
NATIONAL WEATHER SERVICE WAKEFIELD VA
400 PM EST MON MAR 02 2015

Note: "fair" indicates few or no clouds below 12,000 feet with no
significant weather and/or obstructions to visibility. * = Denotes
station may not report precipitation (e.g., rain,snow,etc.),
thunder or fog.

VAZ042-051-052>054-056-022200-
NORTHERN VIRGINIA

CITY           SKY/WX    TMP DP  RH WIND       PRES   REMARKS
WASH NATIONAL  MOSUNNY   44  16  32 N17       30.31R
DULLES         MOSUNNY   40  15  36 NW15      30.30R
FORT BELVOIR   SUNNY     45  15  30 NW9G22    30.30R
QUANTICO       MOSUNNY   46  15  28 N14G26    30.31R
FREDERICKSBRG* SUNNY     48  17  28 NW8G18    30.28R
STAFFORD*      SUNNY     45  13  27 NW13G20   30.33R
WARRENTON      SUNNY     46  25  44 NE10      30.29R
CULPEPER*      SUNNY     46  18  31 N10       30.29R
MANASSAS*      SUNNY     43  18  36 NW18      30.30R
LEESBURG*      SUNNY     41  19  42 N15       30.31R
WINCHESTER     SUNNY     41  12  30 NW14      30.30R
FRONT ROYAL*   FAIR      41  14  33 NW9G21    30.28R
LURAY*         FAIR      46  18  31 N9G16     30.27R
$$

VAZ048-049-060>072-079>083-022200-
CENTRAL AND SOUTH CENTRAL VIRGINIA

CITY           SKY/WX    TMP DP  RH WIND       PRES   REMARKS
RICHMOND       CLOUDY    53  29  39 N8        30.25S
CHESTERFIELD*  FAIR      54  27  35 N8        30.26S
PETERSBURG*    SUNNY     55  27  34 N7        30.25R
HANOVER        SUNNY     52  23  32 VRB6      30.27R
TAPPAHANNOCK*  SUNNY     48  12  23 NW9       30.28R
QUINTON*       FAIR      49  29  46 NE7       30.26R
CHARLOTTSVILLE SUNNY     49  12  22 N7        30.25R
GORDONSVILLE*  FAIR      47  16  28 NE6       30.26R
ORANGE*        SUNNY     46  19  34 N8        30.29R
LOUISA*        SUNNY     52  18  25 NE8       30.25R
BUMPASS*       FAIR      49  21  32 NW5       30.25R
FARMVILLE*     MOSUNNY   58  24  27 E6        30.22R
CREWE*         FAIR      55  27  34 N6        30.22S
FORT PICKETT*  FAIR      54  34  48 NE6       30.23S
CHASE CITY*    FAIR      56  22  26 NW3       30.23R
CLARKSVILLE*   FAIR      55  32  41 W5        30.23R
SOUTH HILL*    PTSUNNY   51  40  63 E5        30.29R
LAWRENCEVILLE* MOCLDY    51  38  61 E6        30.24R
EMPORIA*       MOSUNNY   50  36  57 E3        30.28R
$$

VAZ088>098-022200-
SOUTHEAST VIRGINIA

CITY           SKY/WX    TMP DP  RH WIND       PRES   REMARKS
NORFOLK        MOSUNNY   40  28  62 NE15      30.28R
VIRGINIA BEACH PTSUNNY   47  30  51 N14       30.28R
NORFOLK NAVAL  PTSUNNY   43  29  57 NE13      30.30R
WEST POINT*    SUNNY     51  19  28 N8        30.29R
SALUDA*        FAIR      43  22  43 N13       30.27R
NEWPORT NEWS   SUNNY     45  32  60 E10       30.28R
LANGLEY AFB    SUNNY     40  31  69 NE12      30.27R
FORT EUSTIS    SUNNY     50  30  46 NE6       30.25R
WILLIAMSBURG*  SUNNY     54  36  50 NE6       30.28R
HR EXEC AP*    FAIR      46  32  57 NE10      30.31R
FRANKLIN*      MOSUNNY   49  35  60 NE6       30.27R
WAKEFIELD      SUNNY     52  32  46 CALM      30.27R
$$

VAZ020-022-025-037-045-022200-
WEST CENTRAL AND SOUTHWEST VIRGINIA

CITY           SKY/WX    TMP DP  RH WIND       PRES   REMARKS
STAUNTON*      SUNNY     45  14  28 N8        30.27R
WAYNESBORO*    FAIR      45  15  30 N5        30.24R
HOT SPRINGS VA SUNNY     35   8  32 NW17G23   30.17R WCI  24
LYNCHBURG      SUNNY     51  19  28 VRB3      30.25R
DANVILLE       SUNNY     56  26  31 NW8       30.25R
SOUTH BOSTON*  FAIR      57  23  27 W6        30.24S
MARTINSVILLE   SUNNY     55  18  23 N12G17    30.28R
ROANOKE        MOSUNNY   48  18  30 NW14      30.29R
BLACKSBURG     SUNNY     42  17  36 W6        30.29R
DUBLIN*          N/A    N/A N/A N/A MISG        N/A
MARION*        SUNNY     42  24  48 W10G18    30.29S
HILLSVILLE*    SUNNY     45  22  41 NW13      30.24R
RICHLANDS*     FAIR      39  17  40 NW7       30.29F
WISE*          SUNNY     41  23  48 NW5       30.31S
ABINGDON*      SUNNY     43  24  48 NW6       30.32S
$$

MDZ021>025-VAZ099-100-022200-
SOUTHERN MARYLAND AND THE DELMARVA PENINSULA

CITY           SKY/WX    TMP DP  RH WIND       PRES   REMARKS
PATUXENT RIVER PTSUNNY   44  20  38 NW15      30.28R
BAY BRIDGE APT   N/A     41  18  38 NW13G20   30.30R
LEONARDTOWN    MOSUNNY   43  16  33 N8        30.30R
DOVER          SUNNY     40  19  43 W17       30.26R
GEORGETOWN     SUNNY     42  16  34 NW9G23    30.26R
EASTON         MOSUNNY   43  19  39 NW12G21   30.32R
CAMBRIDGE      SUNNY     43  18  36 NW9G18    30.28R
SALISBURY      SUNNY     45  22  40 NW10      30.26R
OCEAN CITY     MOSUNNY   42  18  37 NW14G23   30.25R
WALLOPS ISLAND PTSUNNY   43  17  35 NW14G25   30.26S
ACCOMACK*      MOSUNNY   41  18  38 N14G22    30.27S
$$

NCZ012>017-030>032-022200-
NORTH CENTRAL AND EASTERN NORTH CAROLINA

CITY           SKY/WX    TMP DP  RH WIND       PRES   REMARKS
ROANOKE RAPIDS CLOUDY    54  41  62 NE8       30.25R
RALEIGH        PTSUNNY   59  37  44 NE7       30.24R
ELIZABETH CITY MOSUNNY   46  34  62 NE13      30.28R
AHOSKIE*       PTSUNNY   50  38  63 NE8       30.27R
EDENTON*       MOSUNNY   49  40  71 SE10      30.27R
CURRITUCK*     MOSUNNY   45  30  55 NE13      30.29R
KILL DEVIL HLS MOSUNNY   40  35  81 N6        30.27R
MANTEO         MOSUNNY   43  32  65 N14       30.29R
CAPE HATTERAS  MOSUNNY   44  36  73 N10G20    30.27R
TARBORO*       MOCLDY    62  41  45 NW5       30.24S
GOLDSBORO      MOSUNNY   62  47  57 NW10      30.20R
WASHINGTON     MOSUNNY   55  44  67 NE10      30.25R
GREENVILLE     SUNNY     61  41  48 N7        30.24R
NEW BERN       MOSUNNY   61  44  53 NE7       30.23R
WILMINGTON     SUNNY     63  48  58 CALM      30.21F
$$

VAZ048-022200-
ELSEWHERE

CITY           SKY/WX    TMP DP  RH WIND       PRES   REMARKS
HARRISBURG PA  MOSUNNY   35  17  47 NW20G31   30.29R WCI  24
BALTIMORE      MOSUNNY   39  15  37 NW16      30.29R
ANNAPOLIS      SUNNY     40  14  34 NW13      30.30R
ANDREWS AFB    SUNNY     40  17  38 N17G26    30.28R
PHILADELPHIA   MOSUNNY   40  14  34 W20G25    30.25R
HENDERSON NC   MOSUNNY   56  26  32 CALM      30.24S
GREENSBORO     PTSUNNY   59  32  36 VRB5      30.22S
ROCKY MOUNT    MOSUNNY   59  37  44 N6        30.23R
$$

VAZ100-022200-
MARINE

STATION/POSITION TIME  TEMP    WIND        PRES    WAVE   SWELL
                       AIR SEA DIR/SP/G            HT/PER HT/PER
                 (UTC) (F)     (DEG/KT/KT) (MB)    (FT/S) (FT/S)
BRANDYWINE LGT   2100          340/ 12/ 13   N/A
CAPE MAY NJ      2100   35 34  300/  3/ 10 1024.0R
LEWES DE         2100   36 30  330/ 17/ 22 1024.1F
15NM E FENWICK I 2100   35 34              1023.8R   3/ 6
OCEAN-CITY-INLET 2100          330/ 15/ 19   N/A
WACHAPREAGUE VA  2100   43 36  350/  8/ 15 1024.6F
THOMAS POINT MD  2100   40 32  310/ 16/ 19 1026.8R
COVE POINT MD    2100   38     360/ 16/ 18 1025.4R
SOLOMONS ISLAND  2100      33                N/A
BISHOPS HEAD MD  2100   42 35  320/ 13/ 17 1025.0R
CAMBRIDGE MD     2100   40 32  310/ 12/ 16 1025.2R
LEWISETTA VA     2100          340/  7/ 10 1025.1S
RAPPAHANNOCK LGT 2100           10/ 17/ 17 1025.7R
STINGRAY PT      2100   36      40/ 12/ 12   N/A
YORK RVR RNG VA  2100   38      80/ 12/ 14 1024.5R
YORKTOWN VA      2100   46 34   30/ 10/ 13 1024.7R
DOMINION TERM VA 2100   38      90/  8/ 11 1025.4R
KIPTOPEKE VA     2100           10/ 10/ 14   N/A
CHES BAY BRIDGE  2100           10/ 12/ 13   N/A
CAPE HENRY VA    2100   40     350/ 13/ 15 1023.9R
CHESAPEAKE LGHT  2000   40     360/ 17/ 17 1025.2R
WILLOUBY STN VA  2100           30/  8/ 10 1026.0R
S CRANEY ISL VA  2100           40/ 12/ 14 1025.5R
CAPE HENRY BUOY  2100      35                N/A     2/ 7
1ST LANDING BUOY 2100   38      10/ 10/ 12 1024.9R
OFFSHORE WE BUOY 2100      37                N/A     3/ 8   2/ 8
64NM E OF VA BCH 2100   44 52  350/ 23/ 27 1023.8R   5/ 5   2/ 8
DUCK PIER NC     2100   37 35   10/ 10/ 11 1024.4R
44100 DUCK FRF   2100      37                N/A     3/ 8
44056 DUCK FRF   2100      35                N/A     2/ 7
OREGON INLET NC  2100   40 43  360/ 12/ 16 1025.0F
HATTERAS NC      2100           20/ 16/ 20   N/A
CAPE LOOKOUT NC  2000   54      70/  2/  3 1023.2R
$$


USA.gov is the U.S. government's official web portal to all federal, state and local government web resources and services.